Duncan, OK

9:56 AM CST on December 15, 2019 (GMT -0600)
Halliburton

Weather History for KDUC - November, 2019

Change the Weather History Date:

Tuesday, November 19, 2019

  Actual Average (WUND) Record (WUND)
Temperature  
Mean Temperature 56 °F -  
Max Temperature 75 °F - - (-1)
Min Temperature 39 °F - - (-1)
Degree Days  
Heating Degree Days 8    
Growing Degree Days 6 (Base 50)    
Moisture  
Dew Point 38 °F    
Average Humidity 65    
Maximum Humidity 87    
Minimum Humidity 26    
Precipitation  
Precipitation 0.00 in - - ()
Sea Level Pressure  
Sea Level Pressure 29.96 in    
Wind  
Wind Speed 4 mph ()    
Max Wind Speed 18 mph    
Max Gust Speed 18 mph    
Visibility 10.0 miles    
Events      
Averages and records for this station are not official NWS values.
T = Trace of Precipitation, MM = Missing Value Source: Averaged Metar Reports

Daily Weather History Graph

Daily Weather History Graph

Search for Another Location

Airport or City:

Astronomy

Nov. 19, 2019 Rise Set
Actual Time 7:08 AM CST 5:25 PM CST
Civil Twilight 6:41 AM CST 5:52 PM CST
Nautical Twilight 6:11 AM CST 6:22 PM CST
Astronomical Twilight 5:41 AM CST 6:52 PM CST
Moon No Moon Rise 1:21 PM CST (11/19)
Length of Visible Light 11h 10m
Length of Day
10h 16m
Waning Gibbous, 51% of the Moon is Illuminated
Nov 19
Waning Gibbous
Nov 19
Last Quarter
Nov 26
New
Dec 4
First Quarter
Dec 11
Full

Hourly Weather History & Observations

Time (CST) Temp. Windchill Dew Point Humidity Pressure Visibility Wind Dir Wind Speed Gust Speed Precip Events Conditions
12:10 AM 45.7 °F 44.4 °F 37.8 °F 74% 29.93 in 10.0 mi NW 3.5 mph - N/A   Clear
12:30 AM 46.8 °F - 38.1 °F 72% 29.93 in 10.0 mi WNW 3.5 mph - N/A   Clear
1:10 AM 43.2 °F 41.5 °F 37.0 °F 79% 29.93 in 10.0 mi SSW 3.5 mph - N/A   Clear
1:30 AM 47.7 °F - 38.3 °F 70% 29.93 in 10.0 mi NW 3.5 mph - N/A   Clear
1:50 AM 44.2 °F 42.7 °F 36.9 °F 75% 29.93 in 10.0 mi West 3.5 mph - N/A   Clear
2:10 AM 44.8 °F - 37.0 °F 74% 29.93 in 10.0 mi Calm Calm - N/A   Clear
2:30 AM 44.4 °F 42.0 °F 37.8 °F 77% 29.92 in 10.0 mi North 4.6 mph - N/A   Clear
2:50 AM 43.9 °F - 37.6 °F 78% 29.92 in 10.0 mi Calm Calm - N/A   Clear
3:30 AM 41.5 °F - 36.5 °F 82% 29.92 in 10.0 mi Calm Calm - N/A   Clear
3:50 AM 41.2 °F - 36.1 °F 82% 29.93 in 10.0 mi Calm Calm - N/A   Clear
4:10 AM 41.4 °F 37.6 °F 36.3 °F 82% 29.94 in 10.0 mi NNE 5.8 mph - N/A   Clear
4:30 AM 45.0 °F - 38.1 °F 77% 29.93 in 10.0 mi Calm Calm - N/A   Clear
5:10 AM 40.6 °F 38.6 °F 36.1 °F 84% 29.94 in 10.0 mi WSW 3.5 mph - N/A   Clear
5:50 AM 43.2 °F 40.5 °F 36.9 °F 78% 29.95 in 10.0 mi NNW 4.6 mph - N/A   Clear
6:10 AM 41.9 °F - 36.5 °F 81% 29.96 in 10.0 mi Calm Calm - N/A   Clear
6:30 AM 43.9 °F 42.3 °F 37.4 °F 78% 29.96 in 10.0 mi North 3.5 mph - N/A   Clear
6:50 AM 43.5 °F - 36.9 °F 77% 29.97 in 10.0 mi Calm Calm - N/A   Clear
7:10 AM 39.9 °F 36.7 °F 36.3 °F 87% 29.99 in 10.0 mi NNE 4.6 mph - N/A   Clear
7:30 AM 43.3 °F 41.7 °F 36.9 °F 78% 29.99 in 10.0 mi ENE 3.5 mph - N/A   Clear
7:50 AM 42.1 °F 40.2 °F 37.8 °F 85% 29.99 in 10.0 mi South 3.5 mph - N/A   Clear
8:10 AM 45.5 °F 44.2 °F 39.6 °F 80% 30.00 in 10.0 mi SSE 3.5 mph - N/A   Clear
8:30 AM 50.0 °F - 41.5 °F 73% 30.00 in 10.0 mi Calm Calm - N/A   Clear
8:50 AM 54.5 °F - 42.6 °F 64% 30.00 in 10.0 mi East 5.8 mph - N/A   Clear
9:10 AM 57.9 °F - 43.2 °F 58% 30.00 in 10.0 mi East 10.4 mph - N/A   Clear
9:30 AM 61.5 °F - 41.9 °F 49% 30.00 in 10.0 mi East 12.7 mph - N/A   Clear
9:55 AM 63.7 °F - 41.5 °F 44% 29.99 in 10.0 mi East 11.5 mph 18.4 mph N/A   Unknown
10:15 AM 66.2 °F - 39.9 °F 38% 29.99 in 10.0 mi East 18.4 mph - N/A   Clear
10:55 AM 70.3 °F - 39.2 °F 32% 29.98 in 10.0 mi ESE 10.4 mph - N/A   Clear
11:15 AM 71.1 °F - 38.8 °F 31% 29.97 in 10.0 mi ESE 11.5 mph - N/A   Clear
11:35 AM 72.3 °F - 37.6 °F 28% 29.96 in 10.0 mi ESE 11.5 mph - N/A   Clear
11:55 AM 73.2 °F - 38.1 °F 28% 29.95 in 10.0 mi SSE 12.7 mph - N/A   Clear
12:15 PM 74.1 °F - 37.4 °F 26% 29.94 in 10.0 mi ESE 11.5 mph - N/A   Clear
12:55 PM 75.6 °F - 38.5 °F 26% 29.92 in 10.0 mi SE 12.7 mph - N/A   Clear